BREEZE-M DEB (TANK), 42936

Orbit data source: Space-Track

BREEZE-M DEB (TANK), 42936 is space debris in HEO originally from a launch on Mon, 11 Sep 2017 UTC launched from the Tyuratam Missile And Space Complex (TTMTR). Debris objects in space refer to the collection of defunct objects orbiting the Earth. Examples of debris include non-operational satellites, rocket bodies, and fragments generated from explosions, collisions, or faulty payload assembly.

Loading next visibility...
BREEZE-M DEB (TANK) details
Identifier
42936, 2017-053C
Orbit
HEO
Last TLE update7 hours ago
Origin
Flag of CISKhrunichev (CIS)
ManufacturerKhrunichev
MissionSpacecraft
Bus & MotorBRIZ TANK, Unknown motor
Mass~1,000 kg wet, 1,000 kg dry
Launch date (UTC)
2017-09-11 (7 years ago)
Launch vehicleUnknown
Launch site
Tyuratam Missile And Space Complex (TTMTR)
Object type
Payload
Rocket body
Debris
Shape & HBRTorus, 4 m
Radar Cross Section8.218 m², Large (>1 m²)

Expand to show TLE details & history

TLE from 7 hours ago
0 BREEZE-M DEB (TANK)
1 42936U 17053C   24361.23829961  .00011224  00000-0  17104-2 0  9991
2 42936  49.5520 345.2137 5146787 349.5057   2.8743  5.38591934140687
Epoch: 2024-12-26T05:43Z
Definitive object data (Epoch: 2024-12-26T05:43:09.086Z)
Latitude-0.00011°
Longitude164.20373°
Altitude337.386 km
Speed9.473 km/s
True Right ascension23h 00m 50s
True Declination0° 00' 00"
Sunlit
Object was in daylight at TLE epoch
Visualization TLE readout
Latitude4.44266°
Longitude-19.81918°
Altitude14,374.291 km
Speed3.07 km/s
Apparent Right ascension10h 24m 24s
Apparent Declination-8° 43' 42"
Sunlit
Object is in daylight
Visualization observer readout
Local Sidereal Time11:52:21
Azimuth207.711° SW
Elevation37.272°
Doppler factor1
Orbital elements
Apogee altitude14,446.166 km
Perigee altitude294.221 km
Semi-major axis13,748.331 km
Eccentricity0.5146787
Inclination49.552°
RAAN345.2137°
Arg. of periapsis349.5057°
True anomaly10.4236°
Mean anomaly2.8743°
Eccentric anomaly5.91135°
Mean motion1.34638 °/min
BSTAR0.0017104
Orbital period267.38 mins
Loading maneuver chart data...
Loading historical data...
Loading historical data...
Loading historical data...
Loading historical data...
Loading historical data...
Loading historical data...
Loading historical data...
Other satellites on launch #53 in the year 2017 (2017-09-11 UTC)

BREEZE-M DEB (TANK) Visibility forecast

Observer location: undefined°, undefined

Span
Click to sort rows by Start time (UTC) header in descending order
Start Az.
Max El. time (UTC)
Max El. Az.
Max El.
End time (UTC)
End Az.
52 mins2024-12-26 12:30:50.057Z207.69° SW2024-12-26 12:30:50.057Z207.69° SW31.18°2024-12-26 13:22:50.057Z191.199° SSW
82 mins2024-12-27 04:12:50.057Z273.888° WNW2024-12-27 04:21:50.057Z358.502° N42.754°2024-12-27 05:34:50.057Z84.921° E
165 mins2024-12-27 08:52:50.057Z302.996° NW2024-12-27 09:30:50.057Z230.568° WSW44.433°2024-12-27 11:37:50.057Z164.262° S
|